Date,TemperatureHighF,TemperatureAvgF,TemperatureLowF,DewpointHighF,DewpointAvgF,DewpointLowF,HumidityHigh,HumidityAvg,HumidityLow,PressureMaxIn,PressureMinIn,WindSpeedMaxMPH,WindSpeedAvgMPH,GustSpeedMaxMPH,PrecipitationSumIn
2013-1-1,43.6,41.2,37.2,31.9,29.7,26.2,73,64,56,30.03,29.91,9,2,12,0.00
2013-1-2,37.2,33.1,30.0,26.7,18.7,14.1,69,56,43,30.25,30.01,7,2,12,0.00
2013-1-3,35.9,31.2,24.7,24.0,18.9,15.0,75,60,53,30.27,30.16,5,2,10,0.00
2013-1-4,41.6,37.0,33.4,26.6,23.4,20.8,67,58,49,30.21,30.09,17,8,22,0.00
2013-1-5,41.2,36.7,32.5,29.6,23.9,20.8,76,60,47,30.40,30.14,12,3,17,0.00
2013-1-6,47.9,40.7,30.9,36.2,32.1,28.6,95,73,49,30.23,30.03,14,2,21,0.01
2013-1-7,47.1,39.8,28.2,32.0,29.5,25.1,89,67,48,30.45,30.14,11,3,20,0.00
2013-1-8,49.6,39.8,28.1,36.9,32.7,24.8,92,77,55,30.45,30.38,12,2,18,0.00
2013-1-9,48.5,41.0,31.9,41.0,36.2,30.1,96,83,60,30.40,30.23,8,2,13,0.00
2013-1-10,50.7,44.0,37.6,34.9,30.5,27.5,78,60,44,30.61,30.37,12,2,17,0.00
2013-1-11,46.4,41.4,35.0,43.9,36.6,28.8,97,83,68,30.52,30.11,7,1,10,0.12
2013-1-12,52.2,45.2,40.9,45.7,43.2,40.1,98,93,78,30.18,30.11,4,1,6,0.00
2013-1-13,52.2,46.1,41.8,51.9,45.6,40.5,99,98,96,30.17,30.00,10,2,12,0.01
2013-1-14,58.6,51.5,42.1,58.0,48.3,36.3,99,90,62,30.31,29.95,8,2,13,0.18
2013-1-15,42.1,40.0,36.8,40.4,37.6,33.6,96,91,81,30.36,30.18,6,1,9,0.68
2013-1-16,42.6,39.0,36.5,41.5,37.7,35.0,96,95,93,30.18,29.83,12,1,17,0.49
2013-1-17,44.5,41.7,38.5,42.0,35.2,29.6,97,79,61,30.14,29.98,5,1,10,0.09
2013-1-18,39.3,34.6,28.1,31.3,20.1,8.5,74,56,32,30.52,30.04,16,4,22,0.00
2013-1-19,47.7,41.8,34.0,35.4,30.6,23.0,72,64,51,30.45,29.99,16,7,24,0.00
2013-1-20,55.9,45.2,35.6,35.9,29.1,15.9,75,55,30,30.11,29.83,16,5,23,0.00
2013-1-21,41.3,33.6,29.1,29.6,20.1,12.3,89,58,46,30.14,29.83,12,3,24,0.00
2013-1-22,30.7,21.8,17.3,15.5,0.9,-5.8,55,40,30,30.32,29.91,21,8,27,0.00
2013-1-23,24.7,20.2,15.9,7.6,0.8,-3.8,56,43,33,30.36,30.18,15,6,20,0.00
2013-1-24,27.2,21.4,15.7,13.2,7.8,-1.1,84,58,31,30.52,30.13,12,4,17,0.00
2013-1-25,25.3,21.3,19.4,18.9,8.6,-0.2,90,60,41,30.52,30.09,10,3,12,0.00
2013-1-26,31.9,26.1,19.7,19.7,17.1,14.7,83,69,54,30.45,30.09,10,2,12,0.04
2013-1-27,34.3,26.6,19.4,22.2,18.3,15.2,87,72,50,30.62,30.45,5,1,7,0.00
2013-1-28,38.9,34.9,29.8,36.8,32.1,22.4,94,89,74,30.54,30.06,10,3,14,0.13
2013-1-29,57.7,44.8,32.2,49.4,40.5,30.9,98,86,68,30.15,30.01,6,2,8,0.00
2013-1-30,64.5,56.1,47.7,58.4,52.6,44.6,96,88,77,30.02,29.27,19,8,26,0.28
2013-1-31,63.2,44.1,31.6,58.9,29.6,10.4,96,58,40,29.93,29.13,26,14,33,0.49
2013-2-1,34.0,27.9,21.6,27.8,13.1,4.3,92,55,40,30.38,29.84,17,8,25,0.01
2013-2-2,30.9,25.2,19.2,27.8,13.0,4.2,90,61,46,30.40,30.04,14,4,18,0.00
2013-2-3,33.4,29.1,23.0,28.5,24.3,17.4,94,83,54,30.04,29.85,14,2,20,0.02
2013-2-4,35.5,30.3,24.7,25.2,16.4,9.5,75,56,44,30.12,29.92,15,4,21,0.00
2013-2-5,37.9,33.6,30.1,30.8,28.0,24.8,90,80,68,29.96,29.88,4,1,5,0.00
2013-2-6,42.6,35.4,28.2,32.1,27.7,21.8,95,75,53,30.38,29.95,9,2,12,0.00
2013-2-7,38.3,32.5,25.6,28.5,23.6,19.7,88,71,48,30.48,30.23,12,2,14,0.00
2013-2-8,41.6,37.7,33.4,40.5,34.1,24.1,96,87,64,30.23,29.69,15,3,24,0.42
2013-2-9,38.2,32.8,28.7,25.0,19.4,15.2,67,58,47,30.40,29.86,16,6,28,0.00
2013-2-10,38.3,32.3,21.8,25.7,17.9,5.1,82,56,30,30.52,30.29,7,2,10,0.00
2013-2-11,51.0,42.6,35.6,50.2,40.5,25.6,100,93,65,30.29,29.70,10,3,14,0.41
2013-2-12,52.5,44.6,34.9,44.2,31.1,27.1,94,60,40,30.01,29.81,11,2,16,0.00
2013-2-13,48.2,37.0,29.5,35.2,29.8,23.5,96,76,53,29.98,29.67,6,2,10,0.24
2013-2-14,46.4,38.2,33.8,35.0,31.7,27.2,96,79,47,30.04,29.77,6,2,7,0.04
2013-2-15,54.4,43.2,35.3,38.7,35.3,32.7,93,75,49,30.06,29.91,9,3,14,0.05
2013-2-16,38.9,36.2,33.2,35.4,30.3,18.1,94,80,53,30.03,29.81,9,3,14,0.06
2013-2-17,33.2,29.5,25.1,19.5,12.8,7.0,64,50,37,30.18,29.81,18,9,29,0.00
2013-2-18,36.2,29.5,23.0,27.7,12.0,4.8,71,48,33,30.39,30.18,15,6,21,0.00
2013-2-19,43.9,40.1,36.2,42.2,33.1,23.6,95,76,53,30.20,29.74,12,7,20,0.07
2013-2-20,37.9,32.5,26.4,26.2,16.6,9.2,65,52,44,30.15,29.84,18,8,27,0.00
2013-2-21,37.9,30.6,24.7,20.7,15.6,11.3,62,54,44,30.33,30.12,10,5,16,0.00
2013-2-22,34.4,31.5,28.8,31.9,23.4,18.0,93,72,61,30.42,30.24,10,1,12,0.02
2013-2-23,46.2,39.9,33.7,45.7,39.1,31.9,98,97,93,30.24,29.80,5,1,9,0.13
2013-2-24,49.1,41.8,34.0,42.4,33.6,22.2,98,75,46,30.10,29.80,13,4,18,0.00
2013-2-25,44.8,36.7,30.6,28.7,24.4,20.4,83,62,46,30.25,30.10,7,2,12,0.00
2013-2-26,48.0,38.6,29.4,46.6,33.9,25.4,95,83,71,30.25,29.63,16,6,22,0.27
2013-2-27,54.2,47.9,42.1,47.4,42.0,36.1,100,82,56,29.70,29.49,14,4,18,0.02
2013-2-28,47.0,43.0,39.5,32.2,30.3,26.6,73,61,47,29.73,29.63,14,8,20,0.00
2013-3-1,46.2,41.4,37.8,32.7,30.8,27.2,74,66,53,29.86,29.71,8,4,15,0.00
2013-3-2,38.9,36.1,33.2,28.0,24.4,21.3,74,62,51,29.87,29.80,10,4,15,0.00
2013-3-3,38.6,34.6,30.9,24.7,21.3,18.4,67,58,50,29.89,29.78,12,5,18,0.00
2013-3-4,41.9,34.7,28.5,23.4,19.2,14.6,61,53,44,30.03,29.89,13,6,20,0.00
2013-3-5,45.5,37.0,29.7,30.0,23.2,17.0,66,57,42,30.09,29.86,13,3,17,0.00
2013-3-6,40.1,38.4,35.2,37.5,34.6,26.8,94,86,64,29.94,29.61,13,5,22,0.99
2013-3-7,47.9,41.4,36.6,32.1,28.5,25.0,73,60,47,30.14,29.94,10,5,17,0.00
2013-3-8,45.2,40.7,35.5,30.6,27.0,22.9,68,58,50,30.26,30.11,14,7,22,0.00
2013-3-9,59.5,44.0,35.3,33.5,25.8,21.4,83,51,24,30.34,30.25,9,3,14,0.00
2013-3-10,56.6,43.8,30.7,38.7,30.7,21.8,88,64,27,30.36,30.26,10,2,12,0.00
2013-3-11,58.3,48.6,40.3,48.4,44.2,37.8,98,85,69,30.28,29.98,15,5,18,0.00
2013-3-12,57.6,53.5,42.8,55.9,47.4,32.6,96,80,63,29.98,29.69,20,8,27,0.88
2013-3-13,48.9,41.9,34.9,33.8,28.5,19.5,86,60,35,30.03,29.88,17,5,23,0.00
2013-3-14,43.2,38.0,33.5,23.4,18.7,14.6,59,46,33,30.08,29.98,16,9,23,0.00
2013-3-15,53.1,42.5,34.4,36.2,26.5,16.8,80,54,34,30.06,29.76,10,4,16,0.00
2013-3-16,52.5,43.5,37.6,41.0,35.1,32.7,86,73,58,29.91,29.65,13,2,16,0.00
2013-3-17,39.1,38.2,34.7,33.4,30.3,29.0,86,73,68,30.08,29.90,6,2,12,0.00
2013-3-18,39.1,39.1,39.1,29.4,29.4,29.4,68,68,68,30.08,30.08,2,2,2,0.00
2013-3-19,53.8,43.6,39.1,40.8,30.0,17.9,70,60,28,30.08,29.73,18,3,26,0.00
2013-3-20,50.8,43.0,36.3,31.7,22.0,15.8,65,44,27,30.00,29.79,12,5,20,0.00
2013-3-21,41.9,35.3,31.2,27.9,18.5,9.9,75,51,35,29.89,29.74,15,6,20,0.00
2013-3-22,44.5,36.4,30.4,24.5,18.9,11.1,59,49,37,30.01,29.87,17,9,23,0.00
2013-3-23,49.5,40.4,32.7,29.2,24.4,19.9,64,53,37,30.03,29.92,13,4,17,0.00
2013-3-24,42.3,38.2,32.4,32.1,25.5,21.2,87,61,44,30.01,29.68,12,2,15,0.00
2013-3-25,36.8,35.0,32.9,35.2,32.9,30.9,96,92,85,29.69,29.50,6,2,12,0.64
2013-3-26,49.9,42.0,35.3,36.0,32.4,26.1,89,70,40,29.96,29.69,8,4,12,0.01
2013-3-27,49.4,44.1,40.3,34.3,30.6,27.2,70,59,45,30.09,29.96,14,6,20,0.00
2013-3-28,48.3,43.4,38.0,34.3,31.4,28.8,74,63,50,30.20,30.08,11,5,17,0.00
2013-3-29,53.9,46.3,39.9,33.6,30.9,27.1,73,56,38,30.25,30.14,6,2,12,0.00
2013-3-30,56.5,46.5,35.8,39.0,32.3,24.4,90,61,31,30.24,30.12,6,1,9,0.00
2013-3-31,55.6,48.7,43.1,50.0,41.8,33.6,97,78,60,30.15,29.75,11,4,14,0.03
2013-4-1,62.1,50.3,42.6,47.7,39.3,18.7,96,69,38,29.98,29.71,17,4,21,0.00
2013-4-2,46.2,41.4,34.3,22.6,18.9,14.1,55,41,28,30.17,29.98,13,5,20,0.00
2013-4-3,49.4,41.6,36.0,23.3,18.5,11.9,54,40,27,30.38,30.17,13,6,20,0.00
2013-4-4,45.7,39.5,31.5,36.3,21.6,13.8,86,49,32,30.44,30.12,10,4,13,0.02
2013-4-5,62.4,48.3,38.5,40.6,34.5,21.7,95,65,24,30.12,29.81,8,2,13,0.21
2013-4-6,51.9,45.3,39.5,35.4,24.2,13.9,67,44,27,30.35,30.03,10,3,13,0.00
2013-4-7,60.2,50.9,41.5,46.5,39.6,25.7,84,66,53,30.32,30.01,15,8,20,0.00
2013-4-8,72.3,62.7,52.5,53.8,48.2,44.6,77,60,39,30.09,29.98,10,4,12,0.00
2013-4-9,80.1,67.6,57.2,59.2,53.8,49.8,78,62,42,30.07,29.93,8,3,10,0.00
2013-4-10,83.2,70.3,58.3,61.9,56.0,51.5,82,62,42,29.97,29.78,10,4,14,0.00
2013-4-11,79.0,65.3,52.8,62.8,57.2,50.6,94,76,53,29.92,29.80,18,5,21,0.00
2013-4-12,62.1,54.4,50.2,61.5,53.2,48.7,98,96,90,29.88,29.62,11,3,14,0.60
2013-4-13,62.1,54.1,44.1,50.7,43.9,36.1,95,71,40,29.97,29.76,10,2,13,0.00
2013-4-14,65.0,55.3,43.5,48.6,42.7,32.8,96,66,31,30.15,29.97,9,2,12,0.00
2013-4-15,59.5,55.9,52.5,49.0,46.2,41.2,79,70,59,30.32,30.15,17,5,21,0.00
2013-4-16,68.8,59.8,52.9,57.4,52.3,46.9,84,77,66,30.34,30.12,14,6,21,0.00
2013-4-17,73.0,64.0,57.8,62.8,56.7,50.9,95,78,61,30.26,30.13,11,3,16,0.00
2013-4-18,74.0,63.2,57.3,63.6,56.3,50.7,99,79,55,30.27,30.04,14,7,16,0.04
2013-4-19,75.3,67.1,56.0,65.7,61.4,52.5,95,83,67,30.04,29.61,26,10,33,0.53
2013-4-20,58.4,53.3,48.5,52.2,35.4,27.0,89,53,34,30.34,29.78,13,6,19,0.15
2013-4-21,53.1,46.2,39.1,34.8,27.5,21.5,74,49,33,30.63,30.34,11,3,14,0.00
2013-4-22,55.1,46.3,35.0,39.8,35.8,31.4,87,68,48,30.62,30.44,10,3,18,0.00
2013-4-23,59.6,50.2,44.9,45.3,41.6,37.7,87,73,54,30.44,30.15,8,2,13,0.00
2013-4-24,68.8,57.9,44.5,57.1,51.4,41.8,94,80,64,30.16,29.81,15,6,20,0.00
2013-4-25,63.2,53.8,46.4,55.5,37.0,26.3,82,54,26,30.31,29.93,13,4,20,0.01
2013-4-26,64.3,55.0,44.3,46.9,37.8,28.4,88,55,27,30.47,30.31,9,2,12,0.00
2013-4-27,65.8,55.6,42.8,44.9,39.7,29.6,91,59,29,30.45,30.32,8,2,10,0.00
2013-4-28,65.5,57.8,46.8,50.4,43.9,33.7,90,61,37,30.32,30.18,12,3,14,0.00
2013-4-29,59.6,56.6,52.2,57.8,53.4,38.8,97,90,51,30.21,30.09,14,6,17,0.01
2013-4-30,63.2,57.3,53.1,56.1,52.6,43.0,97,85,62,30.31,30.12,14,4,20,0.00
2013-5-1,69.6,56.3,43.9,49.3,42.7,35.3,87,63,31,30.46,30.31,13,3,16,0.00
2013-5-2,68.4,56.5,44.5,51.1,46.0,42.3,94,70,43,30.46,30.34,12,2,15,0.00
2013-5-3,62.4,54.4,46.4,48.0,44.3,41.3,90,70,49,30.41,30.33,17,5,21,0.00
2013-5-4,67.3,54.7,43.9,48.9,44.0,40.3,94,70,44,30.37,30.21,17,4,21,0.00
2013-5-5,60.9,52.0,42.3,48.1,42.9,37.5,88,72,54,30.28,30.18,12,3,19,0.00
2013-5-6,63.7,55.1,46.1,57.3,51.2,42.1,93,87,77,30.22,30.10,12,3,17,0.00
2013-5-7,65.5,60.7,57.0,63.0,59.0,55.8,98,94,87,30.11,29.97,13,4,17,0.22
2013-5-8,70.1,61.3,55.6,60.1,57.1,54.3,97,87,64,30.03,29.96,6,2,16,0.07
2013-5-9,70.3,61.8,53.6,61.2,57.7,52.8,98,87,68,30.01,29.94,6,2,10,0.15
2013-5-10,79.4,69.5,59.0,64.0,59.9,56.0,96,74,48,30.03,29.89,9,3,13,0.08
2013-5-11,76.3,67.6,63.2,67.6,63.6,58.1,97,88,65,29.98,29.74,9,2,13,0.87
2013-5-12,64.7,61.1,55.3,63.8,43.3,27.2,97,56,30,30.04,29.74,14,6,22,0.04
2013-5-13,58.6,54.1,51.0,35.4,29.6,24.4,52,39,28,30.17,30.04,12,6,20,0.00
2013-5-14,61.2,53.6,46.0,46.7,33.6,27.5,74,48,32,30.23,30.08,8,3,12,0.00
2013-5-15,75.8,63.8,54.1,63.0,54.0,42.8,87,71,58,30.10,29.71,12,5,15,0.01
2013-5-16,78.8,73.8,66.6,63.7,60.3,57.0,83,63,54,29.91,29.74,10,3,16,0.00
2013-5-17,79.2,70.1,59.2,59.3,51.4,39.0,85,54,28,30.17,29.91,8,2,16,0.00
2013-5-18,68.1,63.3,59.0,58.4,54.5,47.4,96,74,58,30.27,30.18,12,5,15,0.02
2013-5-19,71.1,65.0,59.5,65.8,62.5,58.4,97,92,83,30.24,30.12,10,2,12,0.06
2013-5-20,77.4,70.7,65.2,68.8,66.9,63.7,97,88,71,30.15,30.01,5,2,7,0.04
2013-5-21,78.4,72.6,68.3,69.7,68.0,66.5,96,86,73,30.03,29.90,6,3,11,0.00
2013-5-22,80.3,75.3,70.4,72.3,70.3,66.4,95,85,73,29.96,29.87,10,5,14,0.00
2013-5-23,78.5,73.0,65.8,70.6,67.6,61.9,94,84,71,29.93,29.78,11,5,18,0.26
2013-5-24,66.4,59.4,51.4,64.9,52.0,35.0,96,77,56,30.14,29.75,14,5,23,0.07
2013-5-25,64.8,57.0,48.5,43.4,37.7,34.4,66,49,34,30.15,30.07,12,6,21,0.00
2013-5-26,69.6,60.3,53.6,45.2,39.0,32.7,59,46,30,30.21,30.13,11,5,21,0.00
2013-5-27,68.1,65.1,62.4,55.6,51.9,44.0,78,63,42,30.23,30.20,2,0,17,0.00
2013-5-28,76.5,66.9,60.2,69.2,61.3,54.3,93,83,71,30.23,30.09,9,2,10,0.10
2013-5-29,82.2,74.6,68.4,71.7,67.0,64.4,88,78,62,30.15,30.08,7,3,12,0.00
2013-5-30,84.1,77.7,69.3,72.0,68.3,64.9,87,73,56,30.20,30.14,5,3,7,0.00
2013-5-31,85.1,77.3,69.8,70.6,68.5,65.9,92,75,56,30.17,30.05,9,4,12,0.00
2013-6-1,85.7,78.9,72.5,73.0,69.4,66.4,83,73,60,30.07,29.94,7,4,11,0.00
2013-6-2,83.0,76.9,69.9,72.0,69.2,66.6,93,78,67,29.95,29.85,16,4,24,0.18
2013-6-3,77.2,71.4,67.9,70.2,68.1,63.6,95,90,76,29.93,29.83,10,1,16,0.49
2013-6-4,73.0,66.9,60.7,63.8,50.6,42.7,87,57,36,30.14,29.93,8,2,14,0.01
2013-6-5,77.4,67.4,56.7,61.6,54.6,47.3,91,66,40,30.21,30.09,8,2,12,0.00
2013-6-6,74.4,68.3,61.6,65.3,59.1,53.4,94,73,58,30.12,29.91,13,6,17,0.20
2013-6-7,71.6,69.5,66.3,70.7,68.3,64.8,97,96,92,29.91,29.57,14,5,17,1.70
2013-6-8,76.0,70.6,66.4,67.6,64.7,63.0,96,82,67,30.10,29.67,10,2,12,0.02
2013-6-9,79.4,72.1,65.0,69.3,65.2,59.4,95,79,62,30.23,30.10,9,1,12,0.00
2013-6-10,78.8,73.7,69.6,74.7,70.8,65.7,97,91,81,30.14,29.83,14,5,19,1.67
2013-6-11,81.2,75.0,68.9,69.6,67.3,64.8,96,78,60,29.85,29.77,12,4,22,0.03
2013-6-12,84.3,77.0,71.8,70.9,67.6,64.7,86,73,58,29.88,29.81,6,2,22,0.00
2013-6-13,84.1,74.4,70.1,72.7,67.9,59.8,95,81,57,29.84,29.46,19,5,24,0.52
2013-6-14,74.9,64.6,59.2,60.3,56.1,51.1,91,75,50,29.89,29.56,14,6,22,0.18
2013-6-15,79.0,73.2,62.9,64.1,60.3,56.9,91,65,50,30.09,29.99,5,1,9,0.03
2013-6-16,81.4,73.6,65.2,71.7,66.2,61.9,94,79,62,30.04,29.89,7,1,12,0.02
2013-6-17,82.8,76.2,70.8,72.3,67.8,63.0,85,75,65,29.98,29.88,9,2,14,0.07
2013-6-18,77.4,70.5,63.2,72.5,67.4,61.7,96,90,81,29.90,29.81,7,1,12,0.70
2013-6-19,76.7,69.8,63.4,65.2,60.3,53.9,96,73,47,30.18,29.89,6,2,11,0.00
2013-6-20,77.0,70.5,63.4,63.2,58.0,51.1,85,65,52,30.31,30.18,8,2,12,0.00
2013-6-21,78.6,70.3,59.8,65.8,58.2,46.6,89,67,45,30.34,30.26,6,2,8,0.00
2013-6-22,80.9,73.6,63.7,68.9,64.8,60.6,93,75,59,30.29,30.17,6,2,9,0.00
2013-6-23,79.6,74.5,68.6,73.7,70.1,66.2,93,87,78,30.22,30.09,6,1,7,0.07
2013-6-24,85.9,78.2,73.5,76.2,72.8,68.8,95,84,70,30.14,30.00,6,1,11,0.00
2013-6-25,88.0,79.8,70.9,75.5,71.9,65.2,91,78,60,30.05,29.90,10,1,15,0.08
2013-6-26,85.9,76.8,70.1,76.0,70.7,66.3,94,82,56,29.96,29.81,16,2,18,0.21
2013-6-27,84.0,76.6,71.8,75.8,72.2,69.5,95,87,72,29.85,29.62,14,2,21,0.19
2013-6-28,84.5,77.3,71.6,75.2,71.5,68.5,95,83,68,29.66,29.50,12,3,21,0.11
2013-6-29,83.4,77.5,69.9,74.5,69.9,63.5,95,79,53,29.71,29.53,6,2,9,0.00
2013-6-30,80.9,77.8,74.0,75.9,74.0,70.4,95,88,80,29.87,29.72,14,3,16,1.42
2013-7-1,80.7,78.2,75.8,75.7,73.9,71.6,92,87,79,30.02,29.87,11,4,14,0.05
2013-7-2,81.2,77.5,74.7,75.2,73.1,70.8,94,87,80,30.21,30.02,10,5,14,0.16
2013-7-3,84.7,78.8,75.8,77.0,73.9,70.2,92,85,74,30.27,30.20,6,3,10,0.06
2013-7-4,84.9,80.5,76.7,76.4,74.3,73.0,92,82,69,30.29,30.20,8,4,12,0.01
2013-7-5,85.5,81.5,76.8,76.5,74.7,72.5,89,80,70,30.26,30.15,8,4,12,0.00
2013-7-6,88.0,82.6,77.9,78.1,75.5,73.4,88,80,68,30.21,30.08,7,2,11,0.00
2013-7-7,88.2,81.1,75.3,78.3,73.3,68.4,86,77,64,30.13,30.00,18,2,29,0.00
2013-7-8,84.0,78.7,73.7,73.2,70.1,66.6,88,76,58,30.12,30.04,8,1,12,0.00
2013-7-9,84.0,79.7,75.3,76.2,72.6,69.4,87,79,65,30.12,30.02,4,0,7,0.00
2013-7-10,85.3,80.5,75.8,77.5,74.9,70.7,90,83,74,30.03,29.88,12,2,17,0.03
2013-7-11,82.6,77.5,73.9,73.2,71.2,67.6,92,81,61,29.94,29.86,6,1,17,0.00
2013-7-12,75.6,71.6,69.3,72.5,68.8,65.7,96,91,76,30.00,29.90,6,2,11,0.19
2013-7-13,84.5,80.4,76.1,76.0,74.5,72.0,94,82,70,30.31,30.19,4,0,6,0.07
2013-7-14,86.1,80.7,75.3,77.7,74.3,70.6,97,82,62,30.36,30.29,5,1,6,0.02
2013-7-15,88.6,82.1,75.6,78.4,75.3,72.3,92,81,61,30.32,30.19,4,1,6,0.01
2013-7-16,91.0,84.3,78.0,78.1,74.0,69.4,90,72,51,30.24,30.17,6,1,10,0.01
2013-7-17,92.3,83.1,76.0,76.8,74.3,70.5,92,76,53,30.22,30.10,4,0,5,0.01
2013-7-18,91.8,84.4,77.9,80.9,77.1,73.9,93,79,62,30.12,30.01,3,0,5,0.01
2013-7-19,90.7,85.2,79.8,80.7,77.5,71.2,89,78,65,30.03,29.88,7,2,10,0.00
2013-7-20,91.0,83.9,77.4,79.4,75.9,71.2,88,77,58,29.91,29.80,7,1,10,0.01
2013-7-21,89.7,79.0,74.9,74.8,72.1,67.5,96,81,55,29.95,29.89,6,0,10,0.00
2013-7-22,85.7,79.9,74.2,76.9,74.5,71.7,97,85,68,29.94,29.77,6,1,9,0.00
2013-7-23,85.7,80.4,74.4,75.9,72.2,66.0,97,77,58,29.78,29.64,11,3,15,0.01
2013-7-24,81.4,77.8,71.8,70.6,66.7,59.2,80,69,61,29.92,29.68,6,1,11,0.00
2013-7-25,74.4,68.7,63.7,64.4,60.0,55.2,89,74,65,30.05,29.92,6,2,11,0.00
2013-7-26,80.7,72.3,63.7,66.2,62.5,58.4,92,72,51,30.10,30.04,5,1,7,0.00
2013-7-27,81.8,77.4,70.9,72.2,68.9,63.7,96,76,64,30.06,29.95,9,4,12,0.00
2013-7-28,82.8,76.9,73.3,74.0,70.5,65.4,90,81,71,29.99,29.91,7,2,12,0.00
2013-7-29,80.1,75.0,69.4,71.3,59.2,51.8,88,59,38,30.17,29.99,7,2,12,0.00
2013-7-30,79.2,73.7,66.9,65.6,60.1,54.4,88,63,45,30.24,30.17,4,0,6,0.00
2013-7-31,79.4,73.8,66.3,69.9,66.5,63.3,94,79,65,30.18,30.04,5,1,7,0.00
2013-8-1,77.9,72.8,67.9,72.7,69.6,66.0,96,90,80,30.04,29.84,10,2,12,0.53
2013-8-2,82.4,76.0,68.1,71.8,67.5,62.1,96,76,56,29.98,29.86,4,1,6,0.00
2013-8-3,77.4,73.6,70.9,68.7,66.3,62.4,89,78,62,30.00,29.92,6,1,12,0.04
2013-8-4,80.3,73.3,67.8,65.9,59.3,52.5,86,63,43,30.03,29.91,8,2,13,0.00
2013-8-5,77.4,69.9,60.5,63.5,57.9,51.8,89,67,47,30.12,30.03,5,0,10,0.00
2013-8-6,70.6,68.0,64.3,68.2,65.0,60.2,94,90,85,30.12,30.04,10,4,13,0.26
2013-8-7,80.7,73.7,67.3,72.4,68.7,64.9,93,85,71,30.11,30.03,10,5,13,0.00
2013-8-8,83.2,78.1,71.3,75.0,72.8,68.4,95,84,74,30.07,30.01,7,4,10,0.05
2013-8-9,87.0,79.6,76.8,78.0,75.4,73.5,95,87,70,30.01,29.87,7,2,13,0.48
2013-8-10,81.4,76.6,71.1,73.8,67.7,59.6,87,74,49,30.10,29.95,5,0,7,0.00
2013-8-11,81.6,75.7,71.1,71.4,68.7,65.2,93,79,62,30.14,30.04,5,1,6,0.00
2013-8-12,85.3,77.1,70.4,74.1,70.9,67.9,95,82,59,30.06,29.93,5,0,6,0.00
2013-8-13,81.8,77.1,72.5,75.4,71.5,67.4,95,83,64,29.93,29.76,8,2,14,0.55
2013-8-14,74.0,69.5,62.6,71.3,53.9,46.2,95,58,47,30.10,29.81,9,3,14,0.76
2013-8-15,76.0,67.5,58.0,59.5,54.2,46.1,84,64,41,30.20,30.10,5,0,9,0.00
2013-8-16,76.8,67.5,57.8,64.0,58.3,52.9,95,74,47,30.23,30.15,6,0,10,0.00
2013-8-17,78.5,69.1,59.3,64.4,60.5,55.6,95,76,48,30.29,30.22,10,1,13,0.00
2013-8-18,72.0,68.0,65.0,65.6,62.6,58.6,93,83,69,30.26,30.18,6,1,10,0.03
2013-8-19,74.2,69.6,64.5,68.0,64.8,62.1,95,85,73,30.20,30.09,4,1,6,0.00
2013-8-20,81.1,74.5,66.9,72.6,68.7,64.8,95,83,66,30.19,30.11,6,1,7,0.00
2013-8-21,84.0,78.0,72.5,75.1,72.6,69.5,96,84,65,30.23,30.09,6,2,9,0.03
2013-8-22,84.5,77.1,73.2,75.1,71.0,66.9,92,82,62,30.10,29.94,7,1,12,0.03
2013-8-23,77.2,73.0,67.4,68.3,64.1,55.7,87,74,57,30.12,29.95,6,1,10,0.01
2013-8-24,79.8,70.6,61.6,66.7,61.6,56.8,92,75,48,30.37,30.12,4,1,10,0.00
2013-8-25,76.8,69.0,59.8,64.9,59.0,52.0,97,73,43,30.44,30.29,4,0,7,0.00
2013-8-26,80.9,73.8,66.4,70.3,63.6,57.3,79,71,64,30.31,29.99,6,2,10,0.00
2013-8-27,87.2,79.7,72.7,74.1,70.2,66.4,92,74,56,30.01,29.89,4,1,9,0.00
2013-8-28,79.8,76.6,74.7,74.1,72.2,70.9,94,86,80,29.92,29.87,5,1,7,0.00
2013-8-29,83.0,74.8,69.1,72.5,69.4,65.6,97,84,66,30.05,29.89,6,1,11,0.06
2013-8-30,80.9,76.7,69.4,72.0,69.8,66.7,93,80,71,30.06,29.92,7,3,12,0.00
2013-8-31,84.7,79.1,74.4,74.6,71.9,69.5,88,79,67,29.93,29.83,8,3,11,0.00
2013-9-1,84.3,79.3,73.5,74.8,72.0,68.7,88,79,67,29.87,29.78,5,2,11,0.00
2013-9-2,84.1,79.3,73.2,76.7,73.4,70.4,94,83,67,29.82,29.74,5,1,6,0.06
2013-9-3,82.8,78.5,71.3,75.3,64.8,55.5,89,65,44,29.97,29.74,5,2,10,0.00
2013-9-4,79.0,72.0,64.7,63.5,57.9,49.4,75,62,36,30.09,29.96,5,1,11,0.00
2013-9-5,82.0,74.1,63.2,65.2,60.4,50.6,76,63,49,30.15,30.01,6,2,11,0.00
2013-9-6,74.9,64.0,56.6,54.5,49.4,44.7,81,61,37,30.28,30.15,5,1,9,0.00
2013-9-7,77.0,67.5,56.3,63.9,57.9,49.8,93,73,45,30.17,29.95,5,1,6,0.00
2013-9-8,84.1,74.8,67.3,67.5,64.0,51.0,85,70,49,30.08,29.89,4,1,9,0.00
2013-9-9,75.1,68.0,58.0,67.2,58.0,49.1,86,71,59,30.23,30.08,7,2,10,0.00
2013-9-10,84.1,77.3,71.6,74.8,71.2,67.0,93,82,66,30.21,30.11,7,3,10,0.00
2013-9-11,87.4,80.6,75.4,75.7,73.6,72.1,92,80,61,30.17,30.03,6,2,9,0.00
2013-9-12,85.1,76.6,71.6,74.6,70.7,64.3,95,82,66,30.03,29.75,12,2,15,0.12
2013-9-13,78.3,72.0,65.8,71.0,59.0,51.5,95,65,42,29.92,29.70,7,2,15,0.00
2013-9-14,68.3,61.5,52.6,53.4,48.8,45.9,88,64,47,30.18,29.92,6,2,12,0.00
2013-9-15,72.1,62.1,49.6,60.6,52.9,47.4,95,74,47,30.26,30.11,5,2,8,0.00
2013-9-16,72.8,66.9,58.3,62.3,57.2,52.5,84,72,53,30.25,30.06,6,2,10,0.00
2013-9-17,66.0,57.6,50.1,53.2,45.4,39.0,86,65,41,30.44,30.25,6,1,12,0.00
2013-9-18,68.9,57.4,46.1,53.4,48.6,43.5,94,75,47,30.38,30.22,6,1,11,0.00
2013-9-19,72.7,64.2,50.1,59.9,55.1,47.9,96,74,54,30.22,30.11,5,1,9,0.00
2013-9-20,76.0,65.9,55.7,62.7,58.6,53.6,95,78,53,30.12,29.99,4,1,6,0.00
2013-9-21,76.8,68.1,60.7,68.3,62.3,55.9,99,83,56,30.01,29.70,10,3,15,0.66
2013-9-22,71.5,65.5,61.0,62.4,55.0,46.7,94,71,47,29.95,29.71,9,2,14,0.39
2013-9-23,66.8,58.9,55.1,49.6,45.0,41.0,79,60,47,30.10,29.95,8,2,12,0.00
2013-9-24,70.9,57.7,48.6,53.7,47.9,42.4,92,72,43,30.13,29.95,6,1,12,0.00
2013-9-25,72.1,59.7,50.8,56.2,51.2,44.4,95,77,38,30.00,29.91,5,0,11,0.00
2013-9-26,72.7,62.0,54.2,58.9,54.5,51.0,94,78,49,30.09,29.94,6,1,12,0.00
2013-9-27,70.8,61.7,54.5,59.5,56.2,52.5,95,83,57,30.27,30.09,7,0,9,0.00
2013-9-28,71.8,61.6,53.9,57.6,54.4,51.5,95,79,53,30.33,30.24,6,1,11,0.00
2013-9-29,62.3,56.0,52.5,59.2,54.1,50.5,95,93,89,30.24,30.18,2,0,4,0.00
2013-10-13,66.9,59.8,53.8,57.6,54.1,50.9,92,82,65,30.36,30.29,7,1,10,0.02
2013-10-14,68.9,58.8,51.4,56.4,52.7,50.3,96,81,61,30.36,30.23,7,1,10,0.01
2013-10-15,68.8,61.2,49.4,56.8,51.5,43.5,97,73,44,30.25,30.11,6,1,10,0.01
2013-10-16,66.1,62.3,58.4,61.6,58.3,53.8,94,87,82,30.11,29.95,4,0,10,0.01
2013-10-17,71.8,67.0,63.4,64.8,63.1,60.0,96,88,74,29.95,29.75,13,2,18,0.01
2013-10-18,65.2,60.3,50.5,60.7,46.1,42.4,86,60,45,30.04,29.81,11,4,19,0.00
2013-10-19,63.5,56.7,49.2,60.3,51.1,46.1,95,82,61,30.03,29.80,12,3,18,0.01
2013-10-20,62.3,54.9,47.6,47.9,40.4,34.9,88,59,39,30.12,29.86,14,4,20,0.00
2013-10-21,63.7,55.0,43.5,50.0,45.7,41.2,95,73,45,30.18,30.00,7,2,12,0.00
2013-10-22,63.1,57.8,53.3,53.5,47.7,35.5,89,70,47,30.00,29.84,8,1,12,0.00
2013-10-23,55.9,50.5,45.1,44.5,39.5,33.7,89,67,45,29.85,29.66,6,1,9,0.00
2013-10-24,52.2,48.2,44.6,37.5,31.4,25.3,73,53,39,30.14,29.96,17,8,22,0.00
2013-10-25,55.4,47.6,41.9,37.1,33.3,29.6,71,58,43,30.33,30.14,11,5,16,0.00
2013-10-26,56.0,49.6,41.8,37.3,33.1,29.5,73,54,41,30.32,29.96,10,3,13,0.00
2013-10-27,58.3,51.8,39.9,42.2,36.8,33.8,88,58,41,30.18,29.95,12,4,18,0.00
2013-10-28,61.8,47.1,36.6,46.1,39.7,33.7,90,77,44,30.31,30.17,3,0,6,0.00
2013-10-29,60.2,49.4,40.3,48.5,42.5,36.1,92,78,56,30.40,30.30,5,0,9,0.00
2013-10-30,60.2,54.1,47.4,57.0,51.7,45.5,97,92,81,30.36,30.19,5,1,6,0.06
2013-10-31,67.4,60.3,51.7,61.2,56.3,50.0,97,87,72,30.23,29.82,12,4,16,0.01
2013-11-1,67.1,64.7,60.5,62.4,60.8,57.8,94,87,81,29.82,29.63,12,7,18,0.21
2013-11-2,67.3,57.7,50.8,56.1,47.0,38.8,98,69,47,29.93,29.68,9,2,13,0.02
2013-11-3,55.0,49.1,39.2,43.3,32.8,23.0,74,55,31,30.49,29.93,10,4,17,0.00
2013-11-4,45.7,38.7,32.4,28.9,24.3,19.3,71,57,38,30.66,30.49,6,1,10,0.00
2013-11-5,58.6,49.0,37.2,47.3,41.0,28.3,82,74,62,30.64,30.49,6,1,7,0.00
2013-11-6,62.4,56.7,46.2,55.7,49.2,42.2,90,76,63,30.50,30.09,8,3,12,0.00
2013-11-7,61.0,56.0,47.3,58.2,49.6,28.3,95,80,50,30.09,29.87,13,4,21,0.06
2013-11-8,51.1,46.1,42.2,32.5,27.9,23.9,60,49,38,30.32,30.07,13,5,21,0.00
2013-11-9,53.2,46.5,36.8,39.5,32.1,26.3,82,58,44,30.38,30.05,9,3,14,0.00
2013-11-10,61.2,52.3,47.1,40.7,34.0,29.4,63,50,34,30.22,29.95,14,6,21,0.00
2013-11-11,53.3,48.8,42.5,44.0,35.5,30.3,77,60,49,30.32,30.02,10,5,17,0.00
2013-11-12,53.3,42.5,35.2,38.7,24.9,13.6,67,50,36,30.40,29.99,13,5,25,0.00
2013-11-13,42.6,37.4,32.2,25.3,20.6,17.3,65,51,39,30.48,30.39,9,4,14,0.00
2013-11-14,50.5,42.8,35.9,38.1,28.0,20.7,79,56,36,30.40,30.24,9,3,13,0.00
2013-11-15,52.5,44.7,35.2,39.3,33.5,27.8,82,65,49,30.31,30.21,6,1,9,0.00
2013-11-16,52.0,49.6,44.3,49.0,46.7,37.5,95,90,77,30.32,30.26,5,1,6,0.11
2013-11-17,61.3,55.7,49.9,58.7,52.9,48.7,99,91,80,30.27,29.78,9,2,13,0.01
2013-11-18,66.0,58.6,51.7,59.8,41.8,28.1,96,58,28,29.91,29.70,20,6,28,0.08
2013-11-19,51.7,45.6,39.3,32.1,27.9,23.7,57,50,42,30.39,29.91,12,4,18,0.00
2013-11-20,45.5,36.4,30.1,27.7,24.4,21.5,78,62,40,30.59,30.38,6,1,10,0.00
2013-11-21,48.2,40.6,30.4,41.2,33.2,23.5,85,75,63,30.60,30.41,3,0,6,0.00
2013-11-22,56.3,51.4,44.9,51.6,47.5,40.7,94,87,78,30.41,30.00,4,1,5,0.01
2013-11-23,54.5,44.8,32.9,51.5,29.3,11.7,93,55,38,30.18,30.01,16,5,26,0.00
2013-11-24,33.5,29.1,26.0,15.6,8.1,0.5,54,41,27,30.52,30.17,14,7,29,0.00
2013-11-25,38.0,30.3,24.8,23.9,13.7,9.5,64,50,39,30.59,30.38,11,4,17,0.00
2013-11-26,61.3,41.7,34.9,60.4,32.9,14.4,97,75,38,30.38,29.49,17,4,24,0.61
2013-11-27,43.1,37.3,30.7,42.3,29.7,14.2,97,75,50,30.19,29.49,18,8,30,0.94
2013-11-28,37.0,32.5,27.3,23.3,17.1,12.8,75,54,39,30.51,30.20,13,5,27,0.00
2013-11-29,41.9,32.5,24.2,25.9,21.6,18.4,86,65,42,30.74,30.49,6,1,12,0.00
2013-11-30,36.8,30.1,23.0,26.3,21.6,16.1,87,71,55,30.74,30.40,4,0,11,0.00
2013-12-1,43.2,34.5,25.0,33.8,28.9,22.7,93,81,57,30.40,30.04,4,0,6,0.00
2013-12-2,46.5,40.5,37.9,36.3,34.6,33.3,85,79,67,30.04,29.89,3,0,5,0.00
2013-12-3,52.0,42.5,34.9,38.5,34.5,27.8,90,75,40,30.02,29.89,4,0,6,0.00
2013-12-4,53.5,46.1,36.2,50.5,41.6,33.3,95,84,75,30.11,30.01,5,0,6,0.00
2013-12-5,60.2,55.3,50.1,58.1,53.8,49.1,98,95,84,30.11,29.95,9,4,13,0.00
2013-12-6,59.6,49.5,38.3,58.7,48.5,37.0,98,97,95,30.18,29.91,11,3,15,0.53
2013-12-7,42.9,38.1,32.7,37.5,30.5,21.8,98,75,60,30.56,30.12,10,4,15,0.14
2013-12-8,32.5,30.2,27.8,30.9,24.0,17.7,94,78,59,30.61,30.29,7,1,13,0.01
2013-12-9,37.9,35.0,32.4,36.6,33.5,30.9,96,94,90,30.29,30.05,7,1,10,0.29
2013-12-10,36.6,34.7,32.9,34.6,29.7,18.9,96,84,53,30.24,29.99,13,4,20,0.22
2013-12-11,38.5,32.1,25.4,24.6,20.5,16.0,88,63,46,30.43,30.24,10,3,15,0.03
2013-12-12,35.6,28.9,24.4,27.9,14.1,6.8,91,55,38,30.44,30.26,10,4,15,0.00
2013-12-13,40.6,33.5,29.3,26.9,19.5,13.3,81,58,36,30.34,30.23,12,3,16,0.00
2013-12-14,42.2,35.9,30.6,41.0,29.9,23.3,96,79,63,30.35,29.69,10,3,16,0.67
2013-12-15,46.1,38.3,34.6,37.4,31.0,22.4,100,76,58,29.95,29.63,13,6,20,0.01
2013-12-16,37.8,32.8,29.1,26.3,21.8,16.3,76,64,55,30.22,29.95,13,2,17,0.00
2013-12-17,34.3,32.2,30.9,30.0,26.0,22.3,88,78,69,30.20,29.96,5,1,7,0.02
2013-12-18,38.5,33.6,26.9,28.2,23.7,18.4,86,68,47,30.25,29.98,15,4,21,0.00
2013-12-19,51.3,40.4,27.6,35.1,29.4,22.8,90,67,44,30.23,30.09,6,2,21,0.00
2013-12-20,53.8,48.8,43.3,46.9,37.4,31.2,85,65,54,30.12,30.01,7,4,10,0.00
2013-12-21,62.1,56.8,49.8,56.8,49.8,43.9,87,77,67,30.04,29.92,12,6,14,0.00
2013-12-22,62.3,58.8,52.6,60.8,56.6,50.0,96,92,86,30.04,29.85,16,6,22,0.45
2013-12-23,61.5,53.3,40.1,60.9,50.5,29.3,98,90,65,30.23,29.94,9,3,14,0.49
2013-12-24,40.5,35.2,25.6,29.3,21.3,8.2,78,57,37,30.47,30.20,15,5,22,0.00
2013-12-25,29.5,25.8,22.7,18.9,12.8,8.6,72,58,46,30.60,30.42,6,3,17,0.00
2013-12-26,31.5,26.9,24.8,24.6,21.2,17.8,86,79,68,30.42,30.30,4,1,6,0.00
2013-12-28,48.5,45.4,44.5,34.0,32.8,31.0,65,61,51,30.21,30.05,5,3,7,0.00
2013-12-29,49.8,43.3,38.8,48.7,40.6,32.2,97,90,59,30.07,29.52,17,4,22,0.84
2013-12-30,45.5,41.1,34.1,38.8,32.6,23.6,92,72,59,30.15,29.91,8,3,22,0.00
2013-12-31,43.1,35.7,27.6,30.5,24.5,17.7,74,64,52,30.19,30.11,17,4,21,0.00
2014-1-1,41.6,35.2,27.5,30.3,24.8,19.8,78,66,53,30.44,30.16,9,2,12,0.00
2014-1-2,37.2,32.5,26.9,33.8,29.3,24.9,93,88,74,30.17,29.61,5,1,9,0.00